GW5461 Weather Reports


time (UTC)temp
F
wind
direction
speed
knots
gust
knots
rain 1hr
in
rain 24hr
in
rain mn
in
humidity
%
barometer
mb
20260906225802 67 354 3.5 5.2 0.00 0.00 0.00 70 1016.7
20260906225258 66 35 4.3 6.1 0.00 0.00 0.00 71 1016.9
20260906224754 66 335 5.2 7.0 0.00 0.00 0.00 72 1017.0
20260906224250 66 10 3.5 6.1 0.00 0.00 0.00 72 1017.1
20260906223746 65 6 3.5 5.2 0.00 0.00 0.00 72 1017.0
20260906223242 65 321 5.2 7.0 0.00 0.00 0.00 73 1017.0
20260906222740 66 329 6.1 7.8 0.00 0.00 0.00 72 1017.1
20260906222233 66 347 4.3 5.2 0.00 0.00 0.00 72 1017.2
20260906221731 65 320 5.2 7.8 0.00 0.00 0.00 73 1017.2
20260906221226 66 329 6.1 8.7 0.00 0.00 0.00 72 1017.0
20260906220722 66 320 5.2 7.8 0.00 0.00 0.00 72 1017.0
20260906220217 66 326 7.0 8.7 0.00 0.00 0.00 73 1017.0
20260906215715 66 7 6.1 7.8 0.00 0.00 0.00 71 1016.9
20260906215214 65 323 4.3 5.2 0.00 0.00 0.00 73 1016.8
20260906214712 65 337 3.5 5.2 0.00 0.00 0.00 74 1016.8
20260906214209 64 27 6.1 7.8 0.00 0.00 0.00 74 1017.0
20260906213707 64 7 4.3 6.1 0.00 0.00 0.00 75 1017.1
20260906213202 64 8 4.3 6.1 0.00 0.00 0.00 75 1017.1
20260906212659 64 47 4.3 6.1 0.00 0.00 0.00 74 1016.8
20260906212155 64 17 5.2 7.0 0.00 0.00 0.00 75 1017.1
20260906211655 64 349 6.1 7.0 0.00 0.00 0.00 75 1017.1
20260906211150 64 353 7.0 8.7 0.00 0.00 0.00 74 1017.1
20260906210646 65 353 5.2 7.8 0.00 0.00 0.00 74 1017.1
20260906210145 65 25 3.5 5.2 0.00 0.00 0.00 72 1017.2
20260906205641 64 134 1.7 2.6 0.00 0.00 0.00 74 1017.1
20260906205137 64 330 1.7 2.6 0.00 0.00 0.00 74 1017.3
20260906204636 64 15 0.9 0.9 0.00 0.00 0.00 75 1017.1
20260906204131 64 18 2.6 3.5 0.00 0.00 0.00 75 1017.4
20260906203626 64 14 3.5 3.5 0.00 0.00 0.00 75 1017.4
20260906203125 64 43 1.7 3.5 0.00 0.00 0.00 75 1017.4
20260906202623 64 343 4.3 5.2 0.00 0.00 0.00 74 1017.4
20260906202122 64 359 5.2 7.8 0.00 0.00 0.00 74 1017.3
20260906201617 64 329 5.2 7.0 0.00 0.00 0.00 73 1017.3
20260906201116 64 14 4.3 7.0 0.00 0.00 0.00 74 1017.2
20260906200613 64 357 6.1 7.8 0.00 0.00 0.00 73 1017.2
20260906200108 65 12 4.3 6.1 0.00 0.00 0.00 72 1017.2
20260906195603 64 224 1.7 3.5 0.00 0.00 0.00 73 1017.2
20260906195100 65 75 0.9 1.7 0.00 0.00 0.00 71 1017.4
20260906194556 66 285 0.9 0.9 0.00 0.00 0.00 70 1017.3
20260906194051 64 357 7.8 8.7 0.00 0.00 0.00 72 1017.2
20260906193550 64 36 4.3 6.1 0.00 0.00 0.00 71 1017.0
20260906193046 64 341 9.6 11.3 0.00 0.00 0.00 70 1017.0
20260906192541 64 27 7.8 9.6 0.00 0.00 0.00 69 1017.1
20260906192040 63 258 6.1 7.8 0.00 0.00 0.00 70 1017.1
20260906191536 62 17 8.7 14.8 0.00 0.00 0.00 72 1017.3
20260906191034 63 309 7.0 8.7 0.00 0.00 0.00 70 1017.3
20260906190534 63 5 6.1 8.7 0.00 0.00 0.00 70 1017.6
20260906190029 63 40 7.0 8.7 0.00 0.00 0.00 70 1017.7
20260906185528 62 335 1.7 2.6 0.00 0.00 0.00 71 1017.2
20260906185027 62 137 0.9 1.7 0.00 0.00 0.00 72 1017.7
20260906184522 62 9 6.1 7.0 0.00 0.00 0.00 71 1017.7
20260906184018 62 35 5.2 7.8 0.00 0.00 0.00 71 1017.7
20260906183514 61 17 4.3 6.1 0.00 0.00 0.00 73 1017.2
20260906183009 61 96 4.3 7.0 0.00 0.00 0.00 74 1017.3
20260906182504 60 38 4.3 5.2 0.00 0.00 0.00 75 1017.6
20260906182000 60 63 9.6 13.0 0.00 0.00 0.00 76 1017.6
20260906181456 59 29 13.0 14.8 0.00 0.00 0.00 76 1018.0
20260906180951 58 339 7.8 11.3 0.00 0.00 0.00 80 1018.4
20260906180446 58 356 6.1 7.8 0.00 0.00 0.00 81 1018.7
20260906175945 58 327 10.4 12.2 0.00 0.00 0.00 82 1018.5
20260906175445 57 11 7.8 9.6 0.00 0.00 0.00 83 1018.7
20260906174944 57 350 9.6 12.2 0.00 0.00 0.00 84 1018.8
20260906174443 57 328 7.0 7.8 0.00 0.00 0.00 84 1019.1
20260906173938 57 33 8.7 9.6 0.00 0.00 0.00 85 1018.9
20260906173433 57 12 4.3 5.2 0.00 0.00 0.00 85 1019.3
20260906172933 57 318 10.4 13.0 0.00 0.00 0.00 85 1019.4
20260906172430 56 11 5.2 6.1 0.00 0.00 0.00 86 1019.2
20260906171924 56 353 10.4 13.0 0.00 0.00 0.00 86 1019.3
20260906171419 57 358 9.6 13.9 0.00 0.00 0.00 86 1019.4
20260906170915 57 3 11.3 12.2 0.00 0.00 0.00 85 1019.1
20260906170412 57 332 6.1 7.8 0.00 0.00 0.00 85 1019.3
20260906165908 58 4 8.7 9.6 0.00 0.00 0.00 85 1019.2
20260906165407 58 345 9.6 12.2 0.00 0.00 0.00 84 1019.2
20260906164902 58 23 4.3 5.2 0.00 0.00 0.00 86 1019.1
20260906164401 58 25 5.2 11.3 0.00 0.00 0.00 89 1019.2
20260906163857 57 10 2.6 3.5 0.00 0.00 0.00 90 1019.1
20260906163353 58 17 2.6 3.5 0.00 0.00 0.00 90 1019.3
20260906162850 58 3 5.2 7.0 0.00 0.00 0.00 89 1019.3
20260906162349 58 0 2.6 8.7 0.00 0.00 0.00 89 1019.2
20260906161844 58 12 5.2 6.1 0.00 0.00 0.00 90 1019.3
20260906161344 58 46 5.2 7.0 0.00 0.00 0.00 90 1019.3
20260906160842 58 0 2.6 3.5 0.00 0.00 0.00 90 1019.4
20260906160336 57 7 5.2 7.0 0.00 0.00 0.00 88 1019.5
20260906155835 57 328 3.5 5.2 0.00 0.00 0.00 88 1019.7
20260906155329 58 302 4.3 6.1 0.00 0.00 0.00 88 1019.9
20260906154825 58 44 3.5 5.2 0.00 0.00 0.00 89 1019.9
20260906154320 58 292 3.5 3.5 0.00 0.00 0.00 89 1019.9
20260906153819 58 305 0.9 1.7 0.00 0.00 0.00 89 1019.9
20260906153318 58 350 2.6 3.5 0.00 0.00 0.00 89 1019.8
20260906152813 58 37 0.9 1.7 0.00 0.00 0.00 89 1020.1
20260906152308 58 39 2.6 2.6 0.00 0.00 0.00 89 1019.7
20260906151807 58 22 0.9 0.9 0.00 0.00 0.00 89 1019.5
20260906151303 58 347 2.6 3.5 0.00 0.00 0.00 89 1019.8
20260906150758 58 23 2.6 2.6 0.00 0.00 0.00 89 1019.9
20260906150254 58 354 1.7 2.6 0.00 0.00 0.00 89 1020.0
20260906145753 58 2 1.7 1.7 0.00 0.00 0.00 89 1019.7
20260906145251 58 21 1.7 1.7 0.00 0.00 0.00 89 1019.8
20260906144747 58 7 2.6 3.5 0.00 0.00 0.00 89 1019.8
20260906144242 58 179 0.0 0.0 0.00 0.00 0.00 89 1019.7
20260906143741 58 87 0.0 0.0 0.00 0.00 0.00 89 1019.4
20260906143238 58 99 0.9 1.7 0.00 0.00 0.00 90 1019.5
20260906142738 58 30 2.6 5.2 0.00 0.00 0.00 90 1019.5
20260906142233 58 56 1.7 3.5 0.00 0.00 0.00 91 1020.0
20260906141732 58 358 0.9 0.9 0.00 0.00 0.00 92 1019.8
20260906141227 57 350 0.9 1.7 0.00 0.00 0.00 92 1020.1
20260906140727 57 25 0.9 0.9 0.00 0.00 0.00 93 1020.0
20260906140221 56 340 1.7 2.6 0.00 0.00 0.00 93 1019.9
20260906135718 56 11 2.6 3.5 0.00 0.00 0.00 94 1019.8
20260906135214 55 8 1.7 2.6 0.00 0.00 0.00 94 1019.5
20260906134709 55 50 1.7 2.6 0.00 0.00 0.00 95 1019.4
20260906134204 55 132 0.0 0.0 0.00 0.00 0.00 95 1019.7
20260906133700 55 13 1.7 2.6 0.00 0.00 0.00 96 1019.5
20260906133155 54 49 0.9 1.7 0.00 0.00 0.00 96 1019.7
20260906132651 54 30 1.7 3.5 0.00 0.00 0.00 96 1019.5
20260906132146 54 13 2.6 2.6 0.00 0.00 0.00 96 1019.5
20260906131642 54 25 1.7 2.6 0.00 0.00 0.00 96 1019.4
20260906131136 54 357 4.3 6.1 0.00 0.00 0.00 96 1019.8
20260906130632 54 359 2.6 2.6 0.00 0.00 0.00 96 1020.0
20260906130127 54 352 4.3 6.1 0.00 0.00 0.00 96 1020.1
20260906125625 54 39 2.6 2.6 0.00 0.00 0.00 96 1020.2
20260906125123 54 33 2.6 3.5 0.00 0.00 0.00 97 1019.9
20260906124619 54 8 3.5 5.2 0.00 0.00 0.00 97 1020.0
20260906124114 54 14 3.5 6.1 0.00 0.00 0.00 97 1019.7
20260906123614 54 324 3.5 5.2 0.00 0.00 0.00 96 1019.7
20260906123109 54 12 3.5 3.5 0.00 0.00 0.00 96 1019.9
20260906122608 54 21 3.5 3.5 0.00 0.00 0.00 96 1019.8
20260906122104 54 36 4.3 6.1 0.00 0.00 0.00 96 1019.7
20260906121600 54 36 5.2 6.1 0.00 0.00 0.00 96 1019.8
20260906121056 54 1 6.1 7.8 0.00 0.00 0.00 96 1019.9
20260906120551 54 42 6.1 8.7 0.00 0.00 0.00 96 1019.8
20260906120049 54 342 4.3 5.2 0.00 0.00 0.00 96 1019.8
20260906115549 54 5 5.2 6.1 0.00 0.00 0.00 96 1019.7
20260906115044 54 23 6.1 7.0 0.00 0.00 0.00 96 1019.7
20260906114543 54 2 6.1 7.8 0.00 0.00 0.00 96 1019.5
20260906114039 54 24 4.3 6.1 0.00 0.00 0.00 95 1019.5
20260906113537 54 8 5.2 6.1 0.00 0.00 0.00 95 1019.5
20260906113033 54 38 4.3 6.1 0.00 0.00 0.00 95 1019.5
20260906112528 55 33 5.2 7.8 0.00 0.00 0.00 95 1019.7
20260906112025 55 349 4.3 6.1 0.00 0.00 0.00 95 1020.0
20260906111524 55 22 5.2 7.0 0.00 0.00 0.00 95 1019.9
20260906111020 55 29 4.3 6.1 0.00 0.00 0.00 95 1019.9
20260906110514 55 357 6.1 8.7 0.00 0.00 0.00 95 1019.8
20260906110013 55 351 7.8 11.3 0.00 0.00 0.00 95 1020.0
20260906105509 55 1 4.3 6.1 0.00 0.00 0.00 95 1019.9
20260906105005 55 2 4.3 6.1 0.00 0.00 0.00 95 1019.8
20260906104503 55 0 5.2 7.0 0.00 0.00 0.00 95 1019.7
20260906104003 55 353 4.3 5.2 0.00 0.00 0.00 95 1019.8
20260906103501 55 344 6.1 7.8 0.00 0.00 0.00 95 1019.8
20260906102956 55 11 7.8 9.6 0.00 0.00 0.00 95 1019.9
20260906102451 54 10 7.0 9.6 0.00 0.00 0.00 95 1020.0
20260906101950 54 340 11.3 14.8 0.00 0.00 0.00 96 1020.3
20260906101446 54 20 7.8 11.3 0.00 0.00 0.00 96 1020.1
20260906100941 54 27 7.8 9.6 0.00 0.00 0.00 96 1020.3
20260906100436 54 13 5.2 6.1 0.00 0.00 0.00 96 1019.9
20260906095935 54 344 7.8 9.6 0.00 0.00 0.00 95 1019.8
20260906095431 54 355 5.2 9.6 0.00 0.00 0.00 95 1019.9
20260906094926 54 36 7.0 8.7 0.00 0.00 0.00 95 1019.5
20260906094420 54 341 7.8 9.6 0.00 0.00 0.00 95 1019.9
20260906093916 54 358 7.0 9.6 0.00 0.00 0.00 95 1019.7
20260906093413 54 1 7.8 8.7 0.00 0.00 0.00 95 1019.8
20260906092907 54 40 7.8 8.7 0.00 0.00 0.00 95 1020.1
20260906092406 54 15 7.8 9.6 0.00 0.00 0.00 95 1020.1
20260906091902 54 37 5.2 7.0 0.00 0.00 0.00 94 1020.1
20260906091357 54 18 6.1 7.8 0.00 0.00 0.00 94 1020.2
20260906090854 54 20 6.1 7.8 0.00 0.00 0.00 94 1020.3
20260906090353 54 5 8.7 9.6 0.00 0.00 0.00 94 1020.5
20260906085849 54 15 8.7 11.3 0.00 0.00 0.00 94 1020.3
20260906085347 54 342 8.7 12.2 0.00 0.00 0.00 93 1020.4
20260906084842 54 327 7.8 8.7 0.00 0.00 0.00 94 1020.5
20260906084342 54 7 10.4 12.2 0.00 0.00 0.00 93 1020.5
20260906083836 54 32 9.6 13.0 0.00 0.00 0.00 93 1020.4
20260906083333 54 343 8.7 11.3 0.00 0.00 0.00 93 1020.4
20260906082832 54 0 8.7 12.2 0.00 0.00 0.00 93 1020.5
20260906082327 54 342 7.0 8.7 0.00 0.00 0.00 93 1020.6
20260906081823 55 0 7.8 9.6 0.00 0.00 0.00 92 1020.4
20260906081319 55 27 7.8 8.7 0.00 0.00 0.00 92 1020.3
20260906080814 55 41 7.0 8.7 0.00 0.00 0.00 91 1020.5
20260906080311 55 19 7.8 8.7 0.00 0.00 0.00 91 1020.4
20260906075810 55 33 5.2 7.8 0.00 0.00 0.00 91 1020.4
20260906075309 55 12 7.8 11.3 0.00 0.00 0.00 91 1020.4
20260906074805 55 28 6.1 7.8 0.00 0.00 0.00 90 1020.6
20260906074305 55 28 7.8 11.3 0.00 0.00 0.00 90 1020.9
20260906073804 55 1 7.0 9.6 0.00 0.00 0.00 90 1021.0
20260906073259 55 2 4.3 6.1 0.00 0.00 0.00 89 1020.9
20260906072755 55 34 3.5 6.1 0.00 0.00 0.00 89 1021.1
20260906072251 55 28 6.1 7.8 0.00 0.00 0.00 88 1021.0
20260906071747 55 359 6.1 7.8 0.00 0.00 0.00 88 1021.0
20260906071247 56 34 5.2 9.6 0.00 0.00 0.00 88 1021.0
20260906070743 56 53 9.6 12.2 0.00 0.00 0.00 87 1021.2
20260906070238 56 21 7.8 9.6 0.00 0.00 0.00 87 1021.1
20260906065738 56 44 6.1 8.7 0.00 0.00 0.00 86 1021.2
20260906065233 56 27 6.1 9.6 0.00 0.00 0.00 86 1021.6
20260906064729 56 36 7.0 11.3 0.00 0.00 0.00 86 1021.4
20260906064224 56 32 9.6 12.2 0.00 0.00 0.00 86 1021.6
20260906063719 56 2 9.6 11.3 0.00 0.00 0.00 86 1021.6
20260906063215 56 0 9.6 12.2 0.00 0.00 0.00 86 1021.4
20260906062710 56 341 5.2 7.8 0.00 0.00 0.00 86 1021.4
20260906062209 56 38 7.0 12.2 0.00 0.00 0.00 86 1021.4
20260906061706 57 313 7.8 11.3 0.00 0.00 0.00 85 1021.3
20260906061201 57 21 6.1 8.7 0.00 0.00 0.00 84 1021.5
20260906060656 57 24 6.1 8.7 0.00 0.00 0.00 84 1021.4
20260906060154 57 23 4.3 6.1 0.00 0.00 0.00 84 1021.5
20260906055649 57 24 7.0 8.7 0.00 0.00 0.00 84 1021.4
20260906055144 57 11 7.0 7.8 0.00 0.00 0.00 85 1021.5
20260906054639 57 346 5.2 8.7 0.00 0.00 0.00 84 1021.3
20260906054134 57 336 7.0 8.7 0.00 0.00 0.00 84 1021.3
20260906053631 57 354 4.3 6.1 0.00 0.00 0.00 84 1021.3
20260906053125 57 348 8.7 12.2 0.00 0.00 0.00 84 1021.1
20260906052621 57 13 7.0 9.6 0.00 0.00 0.00 84 1021.3
20260906052118 57 330 7.8 9.6 0.00 0.00 0.00 84 1021.2
20260906051613 57 10 5.2 7.8 0.00 0.00 0.00 84 1021.3
20260906051108 57 341 12.2 15.6 0.00 0.00 0.00 83 1021.2
20260906050604 57 357 9.6 11.3 0.00 0.00 0.00 83 1021.4
20260906050059 57 7 7.0 7.8 0.00 0.00 0.00 82 1021.6
20260906045557 57 29 11.3 15.6 0.00 0.00 0.00 81 1021.9
20260906045053 57 1 7.8 11.3 0.00 0.00 0.00 81 1021.7
20260906044548 57 323 10.4 13.0 0.00 0.00 0.00 80 1021.2
20260906044043 57 334 7.8 11.3 0.00 0.00 0.00 80 1020.9
20260906043539 57 348 9.6 11.3 0.00 0.00 0.00 80 1020.6
20260906043035 57 40 8.7 11.3 0.00 0.00 0.00 80 1020.8
20260906042534 57 357 7.8 9.6 0.00 0.00 0.00 79 1020.8
20260906042029 58 8 7.8 9.6 0.00 0.00 0.00 78 1020.5
20260906041525 58 20 8.7 13.9 0.00 0.00 0.00 78 1020.5
20260906041025 58 36 8.7 12.2 0.00 0.00 0.00 77 1020.6
20260906040520 58 343 7.8 12.2 0.00 0.00 0.00 76 1020.6
20260906040015 59 356 7.8 12.2 0.00 0.00 0.00 74 1020.8
20260906035510 59 48 10.4 13.0 0.00 0.00 0.00 74 1020.9
20260906035007 59 311 4.3 5.2 0.00 0.00 0.00 73 1020.9
20260906034506 59 34 13.9 16.5 0.00 0.00 0.00 73 1020.8
20260906034001 59 344 10.4 13.0 0.00 0.00 0.00 73 1021.0
20260906033455 59 342 7.0 7.8 0.00 0.00 0.00 73 1021.2
20260906032951 59 7 9.6 12.2 0.00 0.00 0.00 73 1021.4
20260906032449 59 333 7.8 11.3 0.00 0.00 0.00 73 1021.1
20260906031948 59 22 9.6 13.0 0.00 0.00 0.00 73 1020.4
20260906031443 59 345 7.8 11.3 0.00 0.00 0.00 73 1020.2
20260906030939 59 7 9.6 11.3 0.00 0.00 0.00 73 1020.2
20260906030433 59 17 7.0 9.6 0.00 0.00 0.00 73 1020.2
20260906025928 59 344 7.8 9.6 0.00 0.00 0.00 72 1019.9
20260906025428 59 21 7.0 8.7 0.00 0.00 0.00 72 1019.9
20260906024927 59 35 10.4 18.2 0.00 0.00 0.00 71 1019.8
20260906024426 59 2 9.6 14.8 0.00 0.00 0.00 71 1019.8
20260906023921 59 357 7.8 13.0 0.00 0.00 0.00 71 1019.5
20260906023418 59 12 6.1 7.8 0.00 0.00 0.00 71 1019.8
20260906022918 60 357 10.4 14.8 0.00 0.00 0.00 70 1019.7
20260906022413 60 339 7.8 8.7 0.00 0.00 0.00 70 1019.8
20260906021908 60 353 7.0 11.3 0.00 0.00 0.00 70 1019.7
20260906021409 60 344 7.0 11.3 0.00 0.00 0.00 69 1019.5
20260906020903 60 350 10.4 13.9 0.00 0.00 0.00 69 1019.7
20260906020403 60 14 8.7 11.3 0.00 0.00 0.00 69 1019.5
20260906015857 61 1 9.6 11.3 0.00 0.00 0.00 68 1019.8
20260906015356 61 356 10.4 16.5 0.00 0.00 0.00 67 1019.7
20260906014856 61 6 8.7 11.3 0.00 0.00 0.00 67 1019.9
20260906014356 61 340 9.6 13.0 0.00 0.00 0.00 67 1019.5
20260906013853 62 12 7.0 9.6 0.00 0.00 0.00 66 1019.5
20260906013348 62 37 7.8 9.6 0.00 0.00 0.00 66 1019.7
20260906012843 62 356 8.7 12.2 0.00 0.00 0.00 66 1019.5
20260906012338 63 353 9.6 12.2 0.00 0.00 0.00 65 1019.5
20260906011838 63 15 5.2 7.0 0.00 0.00 0.00 64 1019.7
20260906011333 64 6 5.2 7.0 0.00 0.00 0.00 62 1019.7
20260906010829 64 348 8.7 13.0 0.00 0.00 0.00 61 1019.4
20260906010325 64 36 7.0 8.7 0.00 0.00 0.00 60 1019.5
20260906005820 65 348 8.7 11.3 0.00 0.00 0.00 60 1019.8
20260906005319 66 344 8.7 13.0 0.00 0.00 0.00 58 1019.7
20260906004818 67 331 10.4 12.2 0.00 0.00 0.00 58 1019.5
20260906004318 68 51 6.1 8.7 0.00 0.00 0.00 57 1019.7
20260906003814 67 356 4.3 7.0 0.00 0.00 0.00 57 1019.8
20260906003309 68 345 12.2 14.8 0.00 0.00 0.00 56 1019.7
20260906002805 68 352 8.7 11.3 0.00 0.00 0.00 55 1019.5
20260906002306 68 339 5.2 7.0 0.00 0.00 0.00 53 1019.4
20260906001800 69 339 8.7 12.2 0.00 0.00 0.00 53 1019.4
20260906001300 69 346 7.8 9.6 0.00 0.00 0.00 52 1019.3
20260906000756 70 353 7.8 11.3 0.00 0.00 0.00 51 1019.5
20260906000256 69 345 6.1 7.8 0.00 0.00 0.00 51 1019.8
20260905235750 69 10 9.6 13.0 0.00 0.00 0.00 52 1019.4
20260905235250 70 331 7.8 9.6 0.00 0.00 0.00 49 1019.9
20260905234746 72 10 6.1 7.8 0.00 0.00 0.00 46 1019.5
20260905234241 73 342 4.3 6.1 0.00 0.00 0.00 44 1019.8
20260905233736 73 346 3.5 6.1 0.00 0.00 0.00 43 1019.8
20260905233235 72 42 4.3 7.0 0.00 0.00 0.00 44 1020.0
20260905232730 74 21 0.9 3.5 0.00 0.00 0.00 43 1019.9
20260905232226 73 348 5.2 6.1 0.00 0.00 0.00 43 1019.8
20260905231721 73 3 6.1 8.7 0.00 0.00 0.00 44 1019.8
20260905231217 73 29 2.6 5.2 0.00 0.00 0.00 43 1019.9
20260905230713 73 308 5.2 7.0 0.00 0.00 0.00 43 1019.7
20260905230211 74 21 3.5 5.2 0.00 0.00 0.00 39 1019.4